Weather History for West Palm Beach, FL

Change the Weather History Date:

Thursday, August 28, 2014

  Actual Average Record
Temperature  
Mean Temperature 83 °F 83 °F  
Max Temperature 89 °F 90 °F 97 °F (1932)
Min Temperature 77 °F 76 °F 68 °F (1889)
Degree Days  
Heating Degree Days 0 0  
Month to date heating degree days 0 0  
Since 1 June heating degree days 0 0  
Since 1 July heating degree days 0 0  
Cooling Degree Days 18 18  
Month to date cooling degree days 542 504  
Year to date cooling degree days 2946 2652  
Since 1 June cooling degree days 1594 1543  
Growing Degree Days 34 (Base 50)    
Moisture  
Dew Point 74 °F    
Average Humidity 77    
Maximum Humidity 88    
Minimum Humidity 65    
Precipitation  
Precipitation 0.21 in 0.27 in 1.76 in (1957)
Month to date precipitation 9.63 7.13  
Year to date precipitation 43.06 39.90  
Snow  
Snow 0.00 in - - ()
Month to date snowfall 0.0  
Since 1 June snowfall 0.0  
Since 1 July snowfall 0.0  
Snow Depth 0.00 in    
Sea Level Pressure  
Sea Level Pressure 29.98 in    
Wind  
Wind Speed 7 mph (East)    
Max Wind Speed 20 mph    
Max Gust Speed 25 mph    
Visibility 10 miles    
Events Rain , Thunderstorm    
T = Trace of Precipitation, MM = Missing Value Source: NWS Daily Summary

Daily Weather History Graph

Daily Weather History Graph

Search for Another Location

Airport:

Trip Planner

Search our weather history database for the weather conditions in past years. The results will help you decide how hot, cold, wet, or windy it might be!

Date:

Astronomy

Aug. 28, 2014 Rise Set
Actual Time 6:58 AM EDT 7:44 PM EDT
Civil Twilight 6:34 AM EDT 8:08 PM EDT
Nautical Twilight 6:06 AM EDT 8:36 PM EDT
Astronomical Twilight 5:38 AM EDT 9:04 PM EDT
Moon 9:29 AM EDT (8/28) 9:29 PM EDT (8/28)
Length of Visible Light 13h 33m
Length of Day
12h 46m
Waxing Crescent, 8% of the Moon is Illuminated
Aug 28
Waxing Crescent
Sep 2
First Quarter
Sep 8
Full
Sep 15
Last Quarter
Sep 24
New

Hourly Weather History & Observations

Time (EDT) Temp. Heat Index Dew Point Humidity Pressure Visibility Wind Dir Wind Speed Gust Speed Precip Events Conditions
12:53 AM 82.9 °F 88.8 °F 73.0 °F 72% 29.99 in 10.0 mi East 6.9 mph - N/A   Partly Cloudy
1:53 AM 82.0 °F 87.4 °F 73.0 °F 74% 29.97 in 10.0 mi ESE 6.9 mph - N/A   Scattered Clouds
2:53 AM 82.0 °F 87.4 °F 73.0 °F 74% 29.96 in 10.0 mi ESE 5.8 mph - N/A   Scattered Clouds
3:53 AM 82.9 °F 88.8 °F 73.0 °F 72% 29.95 in 10.0 mi East 3.5 mph - N/A   Scattered Clouds
4:53 AM 81.0 °F 85.8 °F 73.0 °F 77% 29.95 in 10.0 mi Calm Calm - N/A   Scattered Clouds
5:53 AM 80.1 °F 84.2 °F 73.0 °F 79% 29.95 in 10.0 mi Calm Calm - N/A   Scattered Clouds
6:53 AM 80.1 °F 84.5 °F 73.9 °F 81% 29.96 in 10.0 mi Calm Calm - N/A   Mostly Cloudy
7:53 AM 84.0 °F 91.2 °F 73.9 °F 72% 29.98 in 10.0 mi East 4.6 mph - N/A   Scattered Clouds
8:49 AM 86.0 °F 93.4 °F 73.4 °F 66% 29.98 in 10.0 mi NE 4.6 mph - N/A   Mostly Cloudy
8:53 AM 86.0 °F 93.8 °F 73.9 °F 67% 29.98 in 10.0 mi East 6.9 mph - N/A   Mostly Cloudy
9:53 AM 84.9 °F 92.1 °F 73.9 °F 69% 29.99 in 10.0 mi East 8.1 mph - N/A   Overcast
10:16 AM 82.0 °F 90.2 °F 77.0 °F 85% 29.99 in 2.0 mi Variable 4.6 mph - 0.04 in Rain Heavy Rain
10:34 AM 82.0 °F 90.2 °F 77.0 °F 85% 30.00 in 7.0 mi North 3.5 mph - 0.14 in Rain Light Rain
10:53 AM 82.0 °F 91.0 °F 78.1 °F 88% 30.01 in 10.0 mi Variable 3.5 mph - 0.14 in   Overcast
11:51 AM 78.8 °F - 77.0 °F 94% 30.01 in 7.0 mi East 9.2 mph - 0.03 in Rain Light Rain
11:53 AM 79.0 °F - 75.9 °F 90% 30.01 in 5.0 mi East 11.5 mph - 0.03 in Rain Light Rain
12:07 PM 81.0 °F 87.9 °F 77.0 °F 88% 30.00 in 10.0 mi East 6.9 mph - 0.04 in Rain , Thunderstorm Light Thunderstorms and Rain
12:53 PM 84.0 °F 94.8 °F 78.1 °F 82% 30.01 in 10.0 mi East 13.8 mph - 0.04 in Thunderstorm Thunderstorm
1:27 PM 87.1 °F 98.8 °F 77.0 °F 72% 29.98 in 10.0 mi ENE 9.2 mph - N/A   Mostly Cloudy
1:53 PM 88.0 °F 98.5 °F 75.9 °F 67% 29.98 in 10.0 mi NE 10.4 mph - N/A   Mostly Cloudy
2:53 PM 87.1 °F 98.8 °F 77.0 °F 72% 29.97 in 10.0 mi ENE 12.7 mph - N/A   Mostly Cloudy
3:53 PM 87.1 °F 97.3 °F 75.9 °F 69% 29.96 in 10.0 mi ESE 12.7 mph - N/A   Mostly Cloudy
4:53 PM 88.0 °F 101.3 °F 78.1 °F 72% 29.94 in 10.0 mi East 12.7 mph - N/A   Mostly Cloudy
5:53 PM 87.1 °F 96.3 °F 75.0 °F 67% 29.95 in 10.0 mi SE 15.0 mph - N/A   Mostly Cloudy
6:53 PM 86.0 °F 93.0 °F 73.0 °F 65% 29.95 in 10.0 mi SE 12.7 mph - N/A   Mostly Cloudy
7:53 PM 84.9 °F 95.3 °F 77.0 °F 77% 29.97 in 10.0 mi South 9.2 mph - N/A   Mostly Cloudy
8:06 PM 80.1 °F 83.2 °F 70.0 °F 71% 29.99 in 10.0 mi WSW 15.0 mph 25.3 mph N/A   Mostly Cloudy
8:17 PM 79.0 °F - 70.0 °F 74% 29.99 in 10.0 mi WSW 11.5 mph - N/A   Mostly Cloudy
8:45 PM 78.1 °F - 70.0 °F 76% 30.00 in 10.0 mi WSW 6.9 mph - N/A   Mostly Cloudy
8:53 PM 78.1 °F - 71.1 °F 79% 30.00 in 10.0 mi WSW 5.8 mph - N/A   Mostly Cloudy
9:53 PM 78.1 °F - 71.1 °F 79% 30.02 in 10.0 mi Calm Calm - N/A   Scattered Clouds
10:53 PM 78.1 °F - 71.1 °F 79% 30.02 in 10.0 mi Calm Calm - N/A   Scattered Clouds
11:53 PM 79.0 °F - 71.1 °F 77% 30.02 in 10.0 mi Calm Calm - N/A   Mostly Cloudy